SCOUT B DEB

Satellite information

Favourite Embed

Satellite Type and Status

DEBRISIN ORBIT

Key statistics

Satellite SCOUT B DEB at a glance.

Uptime

20947

Days in orbit

Revolutions

≈ 14.1

Per day

Orbit

LEO

Low Earth Orbit

Inclination

80.7

Latest

Satellite identification and parameters

Extended collection of information and parameters for SCOUT B DEB.

Object identification

Identified? True

Debris? True

Object name: SCOUT B DEB

International designator: 1968-066H

Object number (NORAD): 3392

Object ID (CCSDS): 3392

Country: UNITED STATES OF AMERICA (US)

Current information (Y/N): Y

RCS size: SMALL

Orbital parameters

Period: 101.869 minutes

Inclination: 80.6675 deg

SMA: 7225.26 km

Apoapsis: 1087.659 km

Periapsis: 606.591 km

RAAN: 56.9846 deg

Eccentricy: 0.0332907

Argument of periapsis: 0.4652 deg

Mean anomaly: 359.6762 deg

Mean motion: 14.13587041 rev/day

Mean motion (dot): 0.0001386 rev/day2

B* drag term: 0.0043110468 1/REarth

Two-line elements (TLE)

Creation date: Dec. 13, 2025, 5:47 p.m.

Reference frame: TEME

Reference center: EARTH

Epoch: Dec. 13, 2025, 4:50 a.m. UTC

TLE line 0: 0 SCOUT B DEB

TLE line 1: 1 03392U 68066H 25347.20198554 .00013860 00000-0 43110-2 0 9997

TLE line 2: 2 03392 80.6675 56.9846 0332907 0.4652 359.6762 14.13587041707040

Live tracking on map

Real-time ground track for satellite SCOUT B DEB.

In-orbit conjunctions

A list of the most updated potential collisions computed for object SCOUT B DEB.

Target Orbit TCA Probability of collision Miss distance Type
SL-8 R/B LEO 2025-07-02 08:19:07 0.0001350568 772.0 (m) ROCKET BODY
THOR BURNER 2 R/B SSO 2024-08-18 15:05:54 0.0003154082 112.0 (m) ROCKET BODY

Associated space launch

Explorer 39 was an inflatable sphere, 3.6 m in diameter. It was orbited to make atmospheric density determinations.

SCOUT B DEB was lifted into orbit during the mission ‘Scout B | Explorer 39’, on board a Scout B space rocket.

The launch took place on Aug. 8, 1968, 8:12 p.m. from Space Launch Complex 5.

For more information about the launch, click the button.

Launch to space Scout B | Explorer 39
Scout B | Explorer 39

Agency: N/A

Status: Launch Successful

Launch date: Aug. 8, 1968, 8:12 p.m. UTC

Rocket: Scout B

Launch pad: Space Launch Complex 5

Location: Vandenberg SFB, CA, USA

...

Latest news about this satellite

There are no fresh news available about this satellite. Check back as we update our databases every day.


Newsletter sign-up

Weekly statistics, charts and insights to help you stay on top of the space industry.